sat.trackr.live / text

‹ back to catalog

STARLINK-3069

NORAD 49176 · 2021-082AY

PAYLOAD ACTIVE UNKNOWN

§ Identity

Operator
Country
US
Launch date
2021-09-14
Launch site
AFWTR
Launch vehicle
Mass (kg)
RCS (m²)

Purposes: comms

External: N2YO · Heavens-Above · Gunter

§ Orbital elements

Epoch: 2026-09-04T06:00:02.000160Z

Period
90.12 min
Inclination
69.9968°
Eccentricity
0.0003440
Mean motion
15.97916046 rev/d
Perigee alt
277.9 km
Apogee alt
282.5 km
Semi-major
6,658.3 km
B*
1.5742e-3
RAAN
148.7655°
Arg perigee
278.4867°
Mean anomaly
333.4239°
Rev number
588

§ Raw data

STARLINK-30691 49176U 21082AY  26247.25002315  .00715061  23030-3  15742-2 0  99912 49176  69.9968 148.7655 0003440 278.4867 333.4239 15.97916046  5881

JSON: /api/v1/satellites/49176 · /tle

For live sub-satellite position, see the globe view (requires WebGL).

§ Visibility from observer

Set your observer location to see the next 7 days of passes ≥ 10°. The values pass through the URL so the page stays shareable.

No JS? Fill the form by hand. The geolocation button needs JavaScript.